Location: Peach Mountain Observatory
(42.3967°N, 83.9367°W)
Time: 21:00:08
(UTC-04:00)

deb Explorer IX - Pass Details

Date: 20 January 2020
Orbit: 547 x 1101 km, 38.8° (Epoch: 28 March)

Event Time Altitude Azimuth Distance (km) Brightness Sun altitude
Rises 04:45:14 0° 277° (W) 3,811 - -35.7°
Reaches altitude 10° 04:48:13 10° 270° (W) 2,795 - -35.1°
Maximum altitude 04:54:29 41° 203° (SSW) 1,310 - -34.0°
Exits shadow 04:57:03 28° 155° (SSE) 1,603 ? -33.5°
Drops below altitude 10° 04:59:57 10° 135° (SE) 2,439 ? -32.9°
Sets 05:02:24 0° 128° (SE) 3,280 ? -32.5°
